Location: Shenandoah County Park
(38.9356°N, 78.4524°W)
Time: 06:10:48
(UTC-05:00)

N. Korean satellite - Pass Details

Date: 05 December 2021
Orbit: 446 x 491 km, 97.3° (Epoch: 19 January)

Event Time Altitude Azimuth Distance (km) Brightness Sun altitude
Rises 17:40:49 0° 207° (SSW) 2,531 11.0 -9.5°
Reaches altitude 10° 17:43:43 10° 234° (SW) 1,647 10.7 -10.1°
Maximum altitude 17:45:37 14° 267° (W) 1,416 10.2 -10.4°
Drops below altitude 10° 17:47:32 10° 300° (WNW) 1,639 9.8 -10.7°
Sets 17:50:24 0° 327° (NNW) 2,510 10.4 -11.3°
